Weather History for KAVL - September, 2009

Change the Weather History Date:

Sunday, September 13, 2009

  Actual Average Record
Temperature  
Mean Temperature 68 °F 67 °F  
Max Temperature 80 °F 78 °F 90 °F (1939)
Min Temperature 56 °F 57 °F 39 °F (1917)
Degree Days  
Heating Degree Days 0 1  
Month to date heating degree days 1 5  
Since 1 July heating degree days 1 7  
Cooling Degree Days 3 3  
Month to date cooling degree days 35 61  
Year to date cooling degree days 721 818  
Growing Degree Days 18 (Base 50)    
Moisture  
Dew Point 57 °F    
Average Humidity 73    
Maximum Humidity 100    
Minimum Humidity 45    
Precipitation  
Precipitation 0.00 in 0.13 in 2.63 in (1966)
Month to date precipitation 0.90 1.73  
Year to date precipitation 34.94 33.34  
Snow  
Snow 0.00 in 0.00 in 0.00 in ()
Month to date snowfall 0.0 0.0  
Since 1 July snowfall 0.0 0.0  
Since 1 September snowfall 0.0 0.0  
Snow Depth 0.00 in    
Sea Level Pressure  
Sea Level Pressure 30.03 in    
Wind  
Wind Speed 2 mph (NW)    
Max Wind Speed 13 mph    
Max Gust Speed 16 mph    
Visibility 6 miles    
Events Fog    
T = Trace of Precipitation, MM = Missing Value Source: NWS Daily Summary

Daily Weather History Graph

Daily Weather History Graph

Search for Another Location

Airport or City:

Trip Planner

Search our weather history database for the weather conditions in past years. The results will help you decide how hot, cold, wet, or windy it might be!

Date:

Astronomy

Sep. 13, 2009 Rise Set
Actual Time 7:11 AM EDT 7:39 PM EDT
Civil Twilight 6:45 AM EDT 8:05 PM EDT
Nautical Twilight 6:15 AM EDT 8:35 PM EDT
Astronomical Twilight 5:45 AM EDT 9:05 PM EDT
Moon 1:05 AM EDT (9/13) 4:12 PM EDT (9/13)
Length of Visible Light 13h 19m
Length of Day
12h 28m
Waning Crescent, 33% of the Moon is Illuminated
Sep 13
Waning Crescent
Sep 18
New
Sep 26
First Quarter
Oct 4
Full
Oct 11
Last Quarter

Hourly Weather History & Observations

Time (EDT) Temp. Heat Index Dew Point Humidity Pressure Visibility Wind Dir Wind Speed Gust Speed Precip Events Conditions
12:54 AM 61.0 °F - 59.0 °F 93% 30.00 in 7.0 mi Calm Calm - N/A   Clear
1:54 AM 61.0 °F - 59.0 °F 93% 30.00 in 6.0 mi Calm Calm - N/A   Clear
2:54 AM 61.0 °F - 59.0 °F 93% 29.99 in 6.0 mi Calm Calm - N/A   Mostly Cloudy
3:54 AM 59.0 °F - 57.9 °F 96% 29.99 in 5.0 mi NW 4.6 mph - N/A   Clear
4:54 AM 59.0 °F - 57.9 °F 96% 29.99 in 6.0 mi NW 3.5 mph - N/A   Clear
5:42 AM 57.2 °F - 57.2 °F 100% 30.06 in 6.0 mi Calm Calm - N/A   Scattered Clouds
5:54 AM 57.9 °F - 57.0 °F 97% 30.00 in 6.0 mi NNW 3.5 mph - N/A   Partly Cloudy
6:26 AM 55.4 °F - 55.4 °F 100% 30.07 in 1.8 mi Calm Calm - N/A   Partly Cloudy
6:31 AM 55.4 °F - 55.4 °F 100% 30.07 in 1.0 mi Calm Calm - N/A   Mist
6:38 AM 55.4 °F - 55.4 °F 100% 30.07 in 0.2 mi Calm Calm - N/A Fog Fog
6:54 AM 55.9 °F - 55.9 °F 100% 30.03 in 0.5 mi Calm Calm - N/A Fog Fog
6:59 AM 55.4 °F - 55.4 °F 100% 30.08 in 1.5 mi Calm Calm - N/A   Overcast
7:05 AM 57.2 °F - 55.4 °F 94% 30.08 in 2.5 mi Calm Calm - N/A   Mostly Cloudy
7:10 AM 55.4 °F - 55.4 °F 100% 30.08 in 1.8 mi Calm Calm - N/A   Scattered Clouds
7:19 AM 55.4 °F - 55.4 °F 100% 30.08 in 1.0 mi Calm Calm - N/A   Mist
7:29 AM 55.4 °F - 55.4 °F 100% 30.08 in 2.0 mi Calm Calm - N/A   Mostly Cloudy
7:37 AM 57.2 °F - 55.4 °F 94% 30.08 in 4.0 mi Calm Calm - N/A   Mostly Cloudy
7:54 AM 57.0 °F - 55.9 °F 96% 30.03 in 2.5 mi Calm Calm - N/A   Overcast
8:15 AM 57.2 °F - 57.2 °F 100% 30.08 in 1.2 mi Calm Calm - N/A   Overcast
8:19 AM 57.2 °F - 57.2 °F 100% 30.08 in 0.2 mi Calm Calm - N/A Fog Fog
8:39 AM 57.2 °F - 57.2 °F 100% 30.08 in 0.5 mi Calm Calm - N/A Fog Fog
8:49 AM 57.2 °F - 57.2 °F 100% 30.09 in 1.5 mi Calm Calm - N/A   Mostly Cloudy
8:54 AM 57.9 °F - 57.9 °F 100% 30.04 in 3.0 mi Calm Calm - N/A   Mostly Cloudy
9:54 AM 62.1 °F - 60.1 °F 93% 30.04 in 5.0 mi Calm Calm - N/A   Scattered Clouds
10:54 AM 66.9 °F - 60.1 °F 79% 30.05 in 10.0 mi Calm Calm - N/A   Clear
11:54 AM 71.1 °F - 57.9 °F 63% 30.04 in 10.0 mi Variable 4.6 mph - N/A   Clear
12:54 PM 73.0 °F - 60.1 °F 64% 30.02 in 10.0 mi Calm Calm - 0.00 in   Clear
1:54 PM 77.0 °F - 60.1 °F 56% 30.00 in 2.0 mi Calm Calm - N/A   Haze
2:01 PM 78.8 °F - 60.8 °F 54% 30.06 in 10.0 mi Calm Calm - N/A   Clear
2:54 PM 79.0 °F - 59.0 °F 50% 29.97 in 10.0 mi Calm Calm - N/A   Clear
3:54 PM 80.1 °F 80.7 °F 59.0 °F 48% 29.96 in 10.0 mi Variable 3.5 mph - N/A   Partly Cloudy
4:54 PM 80.1 °F 80.6 °F 57.9 °F 47% 29.95 in 10.0 mi NNW 9.2 mph - N/A   Clear
5:54 PM 75.9 °F - 55.0 °F 48% 29.96 in 10.0 mi NNW 10.4 mph - N/A   Clear
6:54 PM 73.0 °F - 57.9 °F 59% 29.98 in 10.0 mi NNW 6.9 mph - N/A   Clear
7:54 PM 70.0 °F - 57.0 °F 63% 29.99 in 10.0 mi North 3.5 mph - N/A   Clear
8:54 PM 66.9 °F - 57.0 °F 70% 30.01 in 10.0 mi Calm Calm - N/A   Clear
9:54 PM 64.0 °F - 57.9 °F 80% 30.03 in 10.0 mi Calm Calm - N/A   Clear
10:54 PM 60.1 °F - 57.9 °F 93% 30.03 in 10.0 mi WSW 3.5 mph - N/A   Clear
11:54 PM 61.0 °F - 57.9 °F 90% 30.04 in 10.0 mi Calm Calm - N/A   Clear